Hourly Data Report for July 06, 2017

All times are specified in Local Standard Time (LST). Add 1 hour to adjust for Daylight Saving Time where and when it is observed.

LUTSELK'E CS
NORTHWEST TERRITORIES

62°24'56.030" N
110°41'25.070" W
178.90 m
220L002
71529
XLU

Download Data

Hourly Data (July 2017)
Hourly Data Report for July 6, 2017
Temp Definition
°C
Dew Point Temp Definition
°C
Rel Hum Definition
%
Wind Dir Definition
10's deg

Wind Spd Definition
km/h
Visibility Definition
km
Stn Press Definition
kPa
Hmdx Definition


Wind Chill Definition


Weather Definition


TIME
00:00 7.6 3.8 77 LegendMM LegendMM   99.55     LegendNANA
01:00 9.3 3.4 66 LegendMM LegendMM   99.58     LegendNANA
02:00 7.3 3.2 75 LegendMM LegendMM   99.62     LegendNANA
03:00 5.9 3.9 87 LegendMM LegendMM   99.65     LegendNANA
04:00 8.0 5.0 81 LegendMM LegendMM   99.67     LegendNANA
05:00 13.2 7.8 70 LegendMM LegendMM   99.69     LegendNANA
06:00 15.0 8.5 65 LegendMM LegendMM   99.68     LegendNANA
07:00 17.0 9.4 61 LegendMM LegendMM   99.68     LegendNANA
08:00 18.4 8.7 53 LegendMM LegendMM   99.70     LegendNANA
09:00 19.0 7.6 47 LegendMM LegendMM   99.70     LegendNANA
10:00 20.2 6.2 40 LegendMM LegendMM   99.70     LegendNANA
11:00 20.8 5.4 37 LegendMM LegendMM   99.68     LegendNANA
12:00 21.9 5.6 35 LegendMM LegendMM   99.66     LegendNANA
13:00 23.4 6.1 33 LegendMM LegendMM   99.63     LegendNANA
14:00 23.0 7.1 36 LegendMM LegendMM   99.60     LegendNANA
15:00 25.6 8.1 33 LegendMM LegendMM   99.56 26   LegendNANA
16:00 25.7 8.4 33 LegendMM LegendMM   99.53 26   LegendNANA
17:00 23.6 8.5 38 LegendMM LegendMM   99.49     LegendNANA
18:00 22.8 10.1 44 LegendMM LegendMM   99.47     LegendNANA
19:00 21.9 9.4 45 LegendMM LegendMM   99.44     LegendNANA
20:00 20.8 9.1 47 LegendMM LegendMM   99.42     LegendNANA
21:00 19.6 9.4 52 LegendMM LegendMM   99.44     LegendNANA
22:00 16.6 9.2 62 LegendMM LegendMM   99.43     LegendNANA
23:00 15.0 9.3 69 LegendMM LegendMM   99.45     LegendNANA

Notes on Data Quality.

Legend

  • E = Estimated
  • M = Missing
  • NA = Not Available
  • ‡ = Partner data that is not subject to review by the National Climate Archives
Date modified: